Regional Weather Roundup
Issued by NWS

Home | Current Version | Previous Version | Graphics & Text | Print | Product List | Glossary On
Versions: 1 2 3 4 5 6 7 8 9 10 11 12 13 14 15 16 17 18 19 20 21 22 23 24 25 26 27 28 29 30 31 32 33 34 35 36 37 38 39 40 41 42 43 44 45 46 47 48 49 50
000
ASUS43 KMPX 242101
RWRMN
WEATHER ROUNDUP FOR MINNESOTA
NATIONAL WEATHER SERVICE TWIN CITIES/CHANHASSEN MN
300 PM CST SAT FEB 24 2018


NOTE: "FAIR" INDICATES FEW OR NO CLOUDS BELOW 12,000 FEET WITH NO
SIGNIFICANT WEATHER AND/OR OBSTRUCTIONS TO VISIBILITY. N/A MEANS
CURRENT SKY AND/OR WEATHER CONDITIONS ARE NOT AVAILABLE.

MNZ060>063-068>070-242200-
   Twin Cities Metro

CITY           SKY/WX    TMP DP  RH WIND       PRES   REMARKS
TWIN CITIES    LGT SNOW  28  25  88 E8        29.82F FOG     WCI  20
ST PAUL        LGT SNOW  28  22  78 E7        29.85F VSB 1   WCI  21
CRYSTAL        LGT SNOW  26  21  81 E8        29.82F WCI  18
BLAINE         LGT SNOW  28  25  86 E7        29.84F WCI  21
LAKEVILLE      LGT SNOW  25  25 100 NE9       29.78F WCI  15
EDEN PRAIRIE   SNOW      26  22  84 NE9       29.79F VSB 1/4 WCI  17
SOUTH ST PAUL  PTSUNNY   29  23  76 NE5       29.82F HAZE    WCI  24
LAKE ELMO      LGT SNOW  30  25  80 E8        29.84F WCI  23
$$
MNZ001>005-007-008-013>017-022>024-027-028-242200-
   Northwest Minnesota

CITY           SKY/WX    TMP DP  RH WIND       PRES   REMARKS
BEMIDJI        PTSUNNY   18   9  67 E7        29.87F WCI   9
HALLOCK        FAIR      16  10  79 S22       29.85F WCI  -2
ROSEAU         FAIR      21  10  63 S10       29.87F WCI  10
WARROAD        FAIR      27   9  46 SW5       29.88S WCI  21
THIEF RVR FALL FAIR      21  10  62 S9        29.86F WCI  11
CROOKSTON      FAIR      14   9  79 S8        29.87F WCI   3
FOSSTON        FAIR      25  10  54 SE9       29.85F WCI  15
DETROIT LAKES  FAIR      19  16  86 E6        29.83F WCI  11
MOORHEAD       LGT SNOW  12   9  85 CALM      29.85F VSB 3/4
PARK RAPIDS    CLOUDY    21  10  62 E5        29.83F WCI  15
MAHNOMEN       CLOUDY    24   8  50 SE10      29.85F WCI  13
$$
MNZ006-009>011-018-025>026-242200-
   North Central Minnesota

CITY           SKY/WX    TMP DP  RH WIND       PRES   REMARKS
BAUDETTE       FAIR      24   8  50 S12       29.88F WCI  13
FLAG ISLAND    FAIR      18  10  73 S3        29.87F
INTL FALLS     FAIR      28   8  43 VRB5      29.91F WCI  23
WASKISH        CLOUDY    25   9  50 CALM      29.90F
LONGVILLE      FAIR      23   9  54 E5        29.87F WCI  17
GRAND RAPIDS   CLOUDY    25  10  53 E5        29.91F WCI  19
CRANE LAKE     FAIR      27  12  54 CALM      29.96F
ORR            FAIR      27   9  46 SE5       29.91F WCI  21
COOK             N/A     25  12  58 CALM      29.93F
WALKER         CLOUDY    18   8  65 NE5       29.86F WCI  11
$$
MNZ012-019>021-037-242200-
   Northeast Minnesota

CITY           SKY/WX    TMP DP  RH WIND       PRES   REMARKS
DULUTH         PTSUNNY   24  15  68 SE12      29.93F WCI  13
ELY            FAIR      27  10  50 SE7       29.94F WCI  19
HIBBING        CLOUDY    23  10  57 E7        29.92F WCI  15
DULUTH HARBOR  FAIR      25  19  80 E14       29.99F WCI  13
TWO HARBORS    FAIR      34  19  55 E7        29.94F WCI  28
GRAND MARAIS     N/A     24  16  71 E5        30.03F WCI  18
G MARAIS ARPRT FAIR      19   9  63 CALM      29.96F
$$
MNZ029>031-032-039>041-046>048-054>057-064-242200-
   West Central Minnesota

CITY           SKY/WX    TMP DP  RH WIND       PRES   REMARKS
FERGUS FALLS   SNOW      19  16  86 E10       29.81F VSB 1/2 WCI   8
WHEATON        LGT SNOW  12  10  92 N8        29.79F VSB 1   WCI   1
MORRIS         LGT SNOW  21  19  93 NE14      29.71F WCI   8
ALEXANDRIA     SNOW      22  19  89 E10       29.77F VSB 1/2 WCI  11
ELBOW LAKE     SNOW      20  18  92 NE6       29.79F VSB 1/2 WCI  12
WADENA         LGT SNOW  19  12  73 NE6       29.81F WCI  11
GLENWOOD       LGT SNOW  19  18  93 NE17      29.75F VSB 1   WCI   4
APPLETON       SNOW      21  19  93 NE13      29.70F VSB 1/2 WCI   9
BENSON         LGT SNOW  21  18  86 E10       29.74F WCI  10
ORTONVILLE     LGT SNOW  14  10  85 NE17      29.70F VSB 3/4 WCI  -3
MADISON        SNOW      18  16  93 SE7       29.73F VSB 1/4 WCI   8
WILLMAR        CLOUDY    23  19  86 E15       29.76F VSB 1/4 WCI  10
$$
MNZ033>034-036-042>043-049>051-058-059-242200-
   Central Minnesota

CITY           SKY/WX    TMP DP  RH WIND       PRES   REMARKS
ST CLOUD       CLOUDY    25  19  78 E7        29.83F WCI  17
SAUK CENTRE    LGT SNOW  20  18  91 NE10      29.79F VSB 1   WCI   9
PAYNESVILLE    LGT SNOW  24  22  91 E12       29.77F WCI  13
AITKIN         FAIR      27   9  46 NE6       29.87F WCI  20
PINE RIVER     PTSUNNY   19   9  63 E3        29.90F
BRAINERD       CLOUDY    27  12  53 E6        29.85F WCI  20
STAPLES        PTSUNNY   19  10  68 NE6       29.83F WCI  11
LONG PRAIRIE   HVY SNOW  21  18  86 N7        29.81F VSB<1/4 WCI  13
LITTLE FALLS   CLOUDY    27  18  69 E3        29.83F
LITCHFIELD     SNOW      25  21  86 E13       29.77F VSB 1/2 WCI  13
BUFFALO        LGT SNOW  25  21  85 NE8       29.84F WCI  16
MAPLE LAKE     SNOW      25  22  87 E10       29.82F VSB 1/2 WCI  15
HUTCHINSON     SNOW      26  24  93 E9        29.78F VSB 1/4 WCI  16
$$
MNZ037-044-045-052-053-242200-
   East Central Minnesota

CITY           SKY/WX    TMP DP  RH WIND       PRES   REMARKS
PRINCETON      FAIR      27  19  74 NE3       29.84F
CAMBRIDGE        N/A     28  18  64 CALM      29.84F
RUSH CITY      CLOUDY    30  20  67 NE7       29.86F WCI  23
MOOSE LAKE     CLOUDY    30  14  51 NE7       29.87F WCI  23
HINCKLEY       MOCLDY    30  21  69 NE5       29.86F WCI  25
CLOQUET        FAIR      27  14  59 E8        29.91F WCI  18
MCGREGOR       CLOUDY    30  10  43 E7        29.88F WCI  23
$$
MNZ071>073-080-081-089-090-097-098-242200-
   Southwest Minnesota

CITY           SKY/WX    TMP DP  RH WIND       PRES   REMARKS
MONTEVIDEO     SNOW      21  19  93 SE16      29.71F VSB 1/2 WCI   7
GRANITE FALLS  SNOW      22  21  94 NE13G20   29.74F VSB 1/2 WCI  10
CANBY          SNOW      13   9  85 CALM      29.75F VSB 1/2
MARSHALL       LGT SNOW  19  15  84 SE3       29.72F VSB 3/4
REDWOOD FALLS  SNOW      20  19  96 E15G23    29.72F VSB 1/4 WCI   6
OLIVIA         HVY SNOW  23  21  93 E10       29.73F VSB<1/4 WCI  12
PIPESTONE      SNOW      18  16  93 SE7       29.66F VSB 1/2 WCI   8
WORTHINGTON    LGT SNOW  18  15  88 E8        29.68F FOG     WCI   8
JACKSON        SNOW      18  16  93 NE6       29.70F VSB 1/2 WCI   9
TRACY          LGT SNOW  16  15  95 SE6       29.71F VSB 1   WCI   7
SLAYTON        LGT SNOW  16  14  93 E9        29.69F VSB 3/4 WCI   4
$$
MNZ065>067-074>077-082>085-091>093-242200-
   South Central Minnesota

CITY           SKY/WX    TMP DP  RH WIND       PRES   REMARKS
MANKATO        LGT SNOW  26  23  88 NE12      29.74F VSB 3/4 WCI  16
NEW ULM        SNOW      21  19  93 E12       29.73F VSB 1/2 WCI   9
ST JAMES       LGT SNOW  21  21 100 NE9       29.72F VSB 3/4 WCI  11
FAIRMONT       SNOW      20  18  92 N12       29.70F VSB 1/2 WCI   8
GLENCOE        SNOW      26  26 100 E9        29.78F VSB 1/4 WCI  16
FARIBAULT      MIX PCPN  27  25  93 NE10      29.76F WCI  17
OWATONNA       MIX PCPN  28  25  86 E12       29.73F VSB 1   WCI  18
WASECA         LGT SNOW  28  27  93 NE9       29.74F VSB 3/4 WCI  20
ALBERT LEA     MIX PCPN  30  28  93 E12       29.68F VSB 3/4 WCI  21
$$
MNZ078>079-086>088-094>096-242200-
   Southeast Minnesota

CITY           SKY/WX    TMP DP  RH WIND       PRES   REMARKS
ROCHESTER      LGT SNOW  29  26  89 E15       29.74F FOG     WCI  18
RED WING       CLOUDY    28  21  74 E9        29.81F HAZE    WCI  20
STANTON        LGT SNOW  28  24  83 E12       29.77F WCI  18
DODGE CENTER   LGT SNOW  28  25  86 E16       29.71F WCI  17
WINONA         CLOUDY    34  28  80 SE12G17   29.82F HAZE    WCI  25
AUSTIN         MIX PCPN  30  27  86 E15       29.71F WCI  19
PRESTON        CLOUDY    30  27  86 E13       29.76F FOG     WCI  20
$$
ABBREVIATIONS USED IN REMARKS
   TC - TEMPERATURES IN CELSIUS
  WCI - WIND CHILL INDEX
   HX - HEAT INDEX
  VSB - VISIBILITY
$$




USA.gov is the U.S. government's official web portal to all federal, state and local government web resources and services.